User: anonymous
Location: Fort Wayne
(41.1310°N, 85.1290°W)
Time: 09:44:59
(UTC-04:00)
Language:

ISS - Orbit

View from above orbital plane
View from above orbital plane
View from above satellite
View from above satellite

Ground track
Ground track

The orbit data is extracted from the following two-line orbital elements,

1 25544U 98067A   14244.34398148  .00011938  00000-0  21563-3 0    22
2 25544 051.6465 082.1145 0003577 068.8998 297.7307 15.50157821903147
Epoch (UTC): 01 September 2014 08:15:20
Eccentricity: 0.0003577
inclination: 51.6465°
perigee height: 414 km
apogee height: 419 km
right ascension of ascending node: 82.1145°
argument of perigee: 68.8998°
revolutions per day: 15.50157821
mean anomaly at epoch: 297.7307°
orbit number at epoch: 90314

The dashed part of the orbit path shows where the satellite is in the earth's shadow,  

DLR